Location: Bessat
(45.8735°N, 1.9924°E)
Time: 23:08:59
(UTC+00:00)

Okean 3 - Pass Details

Date: 11 May 2021
Orbit: 576 x 601 km, 82.5° (Epoch: 24 June)

Event Time Altitude Azimuth Distance (km) Brightness Sun altitude
Exits shadow 23:50:44 57° 41° (NE) 705 4.0 -26.0°
Drops below altitude 10° 23:54:15 10° 13° (NNE) 1,927 7.1 -26.0°
Sets 23:56:28 0° 12° (NNE) 2,829 8.2 -26.0°
